{"data":{"norad_id":59410,"intl_designator":"2024-064N","name":"STARLINK-31412","alt_names":[],"object_type":"PAYLOAD","status":"ACTIVE","operator":null,"country":"US","launch_date":"2024-04-05","launch_site_code":"AFETR","launch_vehicle":null,"mission":null,"orbit_class":"UNKNOWN","rcs_meters":null,"size_class":null,"mass_kg":null,"dimensions":null,"purposes":["comms"],"wikipedia_slug":null,"has_3d_model":false,"image_url":null,"decayed_at":null,"tle_current":{"epoch":"2026-05-24T20:21:34.724448Z","epoch_age_seconds":88980,"freshness":"FRESH","line1":"1 59410U 24064N   26144.84831857 -.00002754  00000+0 -90628-4 0  9994","line2":"2 59410  43.0021 346.0347 0001031 272.8908  87.1825 15.27565101120871","mean_motion":15.27565101,"eccentricity":0.0001031,"inclination_deg":43.0021,"raan_deg":346.0347,"arg_perigee_deg":272.8908,"mean_anomaly_deg":87.1825,"bstar":-9.0628e-5,"rev_number":12087,"period_min":94.267668137831,"perigee_km":482.38631648201,"apogee_km":483.80110225428,"semimajor_km":6861.2307093681,"source":"CELESTRAK","updated_at":"2026-05-25T13:38:18.941011Z"}}}